Overview Statistics Trail Chart Weather Telemetry Raw packets
 

This is the latest recevied weather packets stored in our database for station/object K5GHS-1. If no packets are shown the sender has not sent any weather packets the latest 10 day(s).

<< 101 102 103 104 105 106 107 >>
Time Temp. Humidity Pressure Rain* Wind** Luminosity Snow
1787949961 40° C 33% 1014.3 hPa 0 mm - 578 W/m² -
1787949661 40.56° C 32% 1014.4 hPa 0 mm - 603 W/m² -
1787949355 40° C 32% 1014.6 hPa 0 mm - 613 W/m² -
1787949050 38.89° C 33% 1014.6 hPa 0 mm - 619 W/m² -
1787948746 38.89° C 34% 1014.6 hPa 0 mm - 609 W/m² -
1787948441 37.78° C 35% 1014.8 hPa 0 mm - 602 W/m² -
1787948136 37.78° C 36% 1014.7 hPa 0 mm - 119 W/m² -
1787947835 37.78° C 36% 1015 hPa 0 mm - 80 W/m² -
1787947534 38.33° C 35% 1014.8 hPa 0 mm - 103 W/m² -
1787947229 37.78° C 36% 1014.9 hPa 0 mm - 591 W/m² -
1787946928 37.78° C 36% 1015 hPa 0 mm - 576 W/m² -
1787946629 37.78° C 35% 1015.1 hPa 0 mm - 568 W/m² -
1787946322 38.33° C 35% 1015.2 hPa 0 mm - 580 W/m² -
1787946022 39.44° C 35% 1015.4 hPa 0 mm - 396 W/m² -
1787945721 39.44° C 35% 1015.2 hPa 0 mm - 668 W/m² -
1787945416 38.89° C 34% 1015.4 hPa 0 mm - 610 W/m² -
1787945112 38.89° C 35% 1015.7 hPa 0 mm - 668 W/m² -
1787944809 38.89° C 36% 1015.7 hPa 0 mm - 664 W/m² -
1787944513 38.33° C 36% 1015.7 hPa 0 mm - 660 W/m² -
1787944200 38.33° C 36% 1015.6 hPa 0 mm - 620 W/m² -
1787943899 38.33° C 37% 1015.7 hPa 0 mm - 634 W/m² -
1787943595 38.33° C 37% 1015.9 hPa 0 mm - 118 W/m² -
1787943295 37.78° C 37% 1015.8 hPa 0 mm - 705 W/m² -
1787942990 37.22° C 38% 1016 hPa 0 mm - 676 W/m² -
1787942686 37.22° C 38% 1016.1 hPa 0 mm - 665 W/m² -

* Rain latest hour (hover to see other rain measurements)
** Current wind speed in m/s (hover to see current wind gust speed)